TimeMST,TemperatureF,Dew PointF,Humidity,Sea Level PressureIn,VisibilityMPH,Wind Direction,Wind SpeedMPH,Gust SpeedMPH,PrecipitationIn,Events,Conditions,WindDirDegrees,DateUTC
12:15 AM,8.6,3.2,79,30.21,10.0,NW,8.1,-,N/A,,Clear,320,2013-01-24 07:15:00
12:35 AM,5.0,1.4,85,30.20,10.0,NNW,3.5,-,N/A,,Scattered Clouds,330,2013-01-24 07:35:00
12:55 AM,5.0,1.4,85,30.19,10.0,West,4.6,-,N/A,,Mostly Cloudy,270,2013-01-24 07:55:00
1:15 AM,6.8,3.2,85,30.19,10.0,Calm,Calm,-,N/A,,Overcast,0,2013-01-24 08:15:00
1:35 AM,6.8,3.2,85,30.19,10.0,WNW,5.8,-,N/A,,Overcast,290,2013-01-24 08:35:00
1:55 AM,8.6,3.2,79,30.20,10.0,WNW,6.9,-,N/A,,Overcast,290,2013-01-24 08:55:00
2:15 AM,8.6,5.0,85,30.21,10.0,Calm,Calm,-,N/A,,Overcast,0,2013-01-24 09:15:00
2:35 AM,10.4,5.0,79,30.21,10.0,Calm,Calm,-,N/A,,Overcast,0,2013-01-24 09:35:00
2:55 AM,10.4,5.0,79,30.20,10.0,Calm,Calm,-,N/A,,Overcast,0,2013-01-24 09:55:00
3:15 AM,10.4,6.8,85,30.19,10.0,Calm,Calm,-,N/A,,Overcast,0,2013-01-24 10:15:00
3:35 AM,12.2,6.8,79,30.20,10.0,West,5.8,-,N/A,,Overcast,260,2013-01-24 10:35:00
3:55 AM,14.0,8.6,79,30.19,10.0,West,5.8,-,N/A,,Overcast,280,2013-01-24 10:55:00
4:15 AM,14.0,8.6,79,30.18,10.0,NW,4.6,-,N/A,,Overcast,320,2013-01-24 11:15:00
4:35 AM,14.0,8.6,79,30.18,10.0,NNW,4.6,-,N/A,,Overcast,330,2013-01-24 11:35:00
4:55 AM,14.0,8.6,79,30.18,10.0,Calm,Calm,-,N/A,,Mostly Cloudy,0,2013-01-24 11:55:00
5:15 AM,14.0,10.4,86,30.18,10.0,WNW,3.5,-,N/A,,Mostly Cloudy,300,2013-01-24 12:15:00
5:35 AM,14.0,10.4,86,30.18,10.0,WNW,3.5,-,N/A,,Overcast,300,2013-01-24 12:35:00
5:55 AM,15.8,10.4,79,30.18,10.0,WSW,4.6,-,N/A,,Overcast,250,2013-01-24 12:55:00
6:15 AM,15.8,10.4,79,30.18,10.0,West,4.6,-,N/A,,Overcast,280,2013-01-24 13:15:00
6:35 AM,17.6,10.4,73,30.18,10.0,West,3.5,-,N/A,,Overcast,270,2013-01-24 13:35:00
6:55 AM,17.6,10.4,73,30.18,10.0,West,3.5,-,N/A,,Overcast,270,2013-01-24 13:55:00
7:15 AM,17.6,12.2,79,30.18,10.0,Calm,Calm,-,N/A,,Overcast,0,2013-01-24 14:15:00
7:35 AM,19.4,12.2,74,30.17,10.0,Calm,Calm,-,N/A,,Overcast,0,2013-01-24 14:35:00
7:55 AM,19.4,14.0,80,30.17,10.0,Calm,Calm,-,N/A,,Overcast,0,2013-01-24 14:55:00
8:15 AM,19.4,14.0,80,30.17,10.0,Calm,Calm,-,N/A,,Overcast,0,2013-01-24 15:15:00
8:35 AM,19.4,14.0,80,30.18,10.0,ESE,3.5,-,N/A,,Overcast,120,2013-01-24 15:35:00
8:55 AM,19.4,14.0,80,30.19,10.0,Calm,Calm,-,N/A,,Overcast,0,2013-01-24 15:55:00
9:15 AM,19.4,14.0,80,30.19,2.0,Calm,Calm,-,N/A,Snow,Light Snow,0,2013-01-24 16:15:00
9:35 AM,21.2,17.6,86,30.19,3.0,Calm,Calm,-,N/A,Snow,Light Snow,0,2013-01-24 16:35:00
9:55 AM,21.2,17.6,86,30.19,3.0,West,3.5,-,N/A,Snow,Light Snow,260,2013-01-24 16:55:00
10:15 AM,23.0,17.6,80,30.19,5.0,Calm,Calm,-,N/A,Snow,Light Snow,0,2013-01-24 17:15:00
10:35 AM,23.0,17.6,80,30.20,10.0,NW,3.5,-,N/A,,Overcast,320,2013-01-24 17:35:00
10:55 AM,24.8,19.4,80,30.19,10.0,Calm,Calm,-,N/A,,Overcast,0,2013-01-24 17:55:00
11:15 AM,28.4,19.4,69,30.19,7.0,Calm,Calm,-,N/A,,Overcast,0,2013-01-24 18:15:00
11:35 AM,28.4,21.2,74,30.19,10.0,Calm,Calm,-,N/A,,Overcast,0,2013-01-24 18:35:00
11:55 AM,28.4,21.2,74,30.19,10.0,Calm,Calm,-,N/A,,Overcast,0,2013-01-24 18:55:00
12:15 PM,28.4,21.2,74,30.18,10.0,Calm,Calm,-,N/A,,Overcast,0,2013-01-24 19:15:00
12:35 PM,30.2,23.0,75,30.17,10.0,NW,3.5,-,N/A,,Overcast,310,2013-01-24 19:35:00
12:55 PM,30.2,23.0,75,30.17,10.0,Calm,Calm,-,N/A,,Overcast,0,2013-01-24 19:55:00
1:15 PM,32.0,23.0,69,30.16,10.0,Calm,Calm,-,N/A,,Overcast,0,2013-01-24 20:15:00
1:35 PM,32.0,23.0,69,30.17,10.0,Calm,Calm,-,N/A,,Overcast,0,2013-01-24 20:35:00
1:55 PM,32.0,23.0,69,30.16,10.0,Calm,Calm,-,N/A,,Overcast,0,2013-01-24 20:55:00
2:15 PM,32.0,23.0,69,30.16,10.0,Calm,Calm,-,N/A,,Overcast,0,2013-01-24 21:15:00
2:35 PM,32.0,23.0,69,30.16,10.0,Calm,Calm,-,N/A,,Overcast,0,2013-01-24 21:35:00
2:55 PM,32.0,24.8,75,30.17,10.0,WNW,4.6,-,N/A,,Overcast,300,2013-01-24 21:55:00
3:15 PM,32.0,24.8,75,30.18,10.0,Calm,Calm,-,N/A,,Overcast,0,2013-01-24 22:15:00
3:35 PM,32.0,24.8,75,30.18,10.0,Calm,Calm,-,N/A,,Overcast,0,2013-01-24 22:35:00
3:55 PM,32.0,26.6,80,30.19,10.0,Calm,Calm,-,N/A,,Overcast,0,2013-01-24 22:55:00
4:15 PM,32.0,26.6,80,30.19,10.0,Calm,Calm,-,N/A,,Overcast,0,2013-01-24 23:15:00
4:35 PM,32.0,26.6,80,30.20,10.0,West,4.6,-,N/A,,Overcast,280,2013-01-24 23:35:00
4:55 PM,32.0,26.6,80,30.20,10.0,West,3.5,-,N/A,,Overcast,260,2013-01-24 23:55:00
5:15 PM,32.0,26.6,80,30.19,10.0,WNW,5.8,-,N/A,,Overcast,290,2013-01-25 00:15:00
5:35 PM,32.0,28.4,87,30.18,10.0,West,6.9,-,N/A,,Overcast,280,2013-01-25 00:35:00
5:55 PM,32.0,30.2,93,30.19,10.0,WNW,6.9,-,N/A,,Overcast,300,2013-01-25 00:55:00
6:15 PM,32.0,30.2,93,30.20,10.0,NNW,5.8,-,N/A,,Overcast,330,2013-01-25 01:15:00
6:35 PM,32.0,30.2,93,30.21,10.0,NNW,4.6,-,N/A,,Overcast,330,2013-01-25 01:35:00
6:55 PM,30.2,28.4,93,30.22,10.0,NW,4.6,-,N/A,,Overcast,310,2013-01-25 01:55:00
7:15 PM,30.2,28.4,93,30.23,10.0,WNW,4.6,-,N/A,,Overcast,290,2013-01-25 02:15:00
7:35 PM,30.2,28.4,93,30.22,10.0,WSW,4.6,-,N/A,,Overcast,240,2013-01-25 02:35:00
7:55 PM,28.4,28.4,100,30.23,10.0,WNW,4.6,-,N/A,,Overcast,290,2013-01-25 02:55:00
8:15 PM,28.4,28.4,100,30.23,10.0,WNW,4.6,-,N/A,,Mostly Cloudy,290,2013-01-25 03:15:00
8:35 PM,26.6,26.6,100,30.24,10.0,West,4.6,-,N/A,,Mostly Cloudy,270,2013-01-25 03:35:00
8:55 PM,26.6,24.8,93,30.24,10.0,Calm,Calm,-,N/A,,Mostly Cloudy,0,2013-01-25 03:55:00
9:15 PM,26.6,24.8,93,30.25,10.0,Calm,Calm,-,N/A,,Overcast,0,2013-01-25 04:15:00
9:35 PM,24.8,24.8,100,30.25,10.0,East,3.5,-,N/A,,Overcast,80,2013-01-25 04:35:00
9:55 PM,23.0,23.0,100,30.26,10.0,Calm,Calm,-,N/A,,Overcast,0,2013-01-25 04:55:00
10:15 PM,24.8,23.0,93,30.26,10.0,Calm,Calm,-,N/A,,Overcast,0,2013-01-25 05:15:00
10:35 PM,23.0,23.0,100,30.26,10.0,Calm,Calm,-,N/A,,Mostly Cloudy,0,2013-01-25 05:35:00
10:55 PM,21.2,21.2,100,30.26,10.0,West,5.8,-,N/A,,Scattered Clouds,280,2013-01-25 05:55:00
11:15 PM,19.4,19.4,100,30.26,7.0,WNW,4.6,-,N/A,,Scattered Clouds,290,2013-01-25 06:15:00
11:35 PM,19.4,19.4,100,30.27,4.0,Calm,Calm,-,N/A,,Clear,0,2013-01-25 06:35:00
11:55 PM,21.2,21.2,100,30.27,3.0,Calm,Calm,-,N/A,,Mist,0,2013-01-25 06:55:00